Погода в Азнакаево

Россия / Республика Татарстан     54°51′35″N   53°04′28″E
темп.,
°C
ветер,
м/с
пор.,
м/с
влажн.,
%
обл.,
%
осадки,
мм/ч
давл.,
гПа
погр.,
м
15 июня, вт
вт1500:00+16зюз3590100 0.7 101592
03:00+16ю2390100 0.9 101650
06:00+19зюз2582100 0.0 1016177
09:00+22ю337293 0.1 1017594
12:00+25юз245866 0.0 1016883
15:00+26юз115040 0.0 10151149
18:00+25в22685 0.1 101430
21:00+19в33825 0.2 101426
16 июня, ср
ср1600:00+17вюв36904 0.0 101493
03:00+18вюв35805 0.0 101383
06:00+21вюв367371 0.0 1012183
09:00+25юв5854100 0.0 1011452
12:00+27ю6950100 0.0 1010928
15:00+27ююз695782 0.0 10091386
18:00+24юз5107218 0.6 1009467
21:00+19юз310851 0.6 1009194
17 июня, чт
чт1700:00+17зюз349018 0.0 100867
03:00+16зсз3495100 1.4 100988
06:00+17с689274 0.2 1010446
09:00+16ссз6989100 0.1 1010756
12:00+18ссз697369 0.1 10121155
15:00+20ссз79560 0.1 10132045
18:00+18с510621 0.0 1014545
21:00+16ссз612554 0.0 1016662
18 июня, пт
пт1800:00+12ссз512711 0.0 1017320
03:00+10сз511780 0.0 1018288
06:00+12с710772 0.0 1019547
09:00+16с78615 0.0 10211119
12:00+18с684949 0.1 10222258
15:00+18с684866 0.1 10232253
18:00+16ссз586226 0.0 1023517
21:00+12сз36741 0.0 102587
19 июня, сб
сб1900:00+11сз347992 0.0 102657
03:00+10зсз227977 0.0 102625
06:00+14з4768100 0.0 1026241
09:00+19з685932 0.0 1025792
12:00+22з79555 0.0 10231386
15:00+22з710643 0.1 10211519
18:00+21з611760 0.2 1020731
21:00+17з5139064 0.3 1020277